DECAYED

OBJECT N, 43843 (Decayed)

Orbit data source: Space-Track

You're viewing an Uncataloged Satellite

Recently launched and/or uncataloged satellites may have evolving metadata. Metadata may include but not limited to: Owner, Maufacturer, Bus, Motor, and Mission.

OBJECT N, 43843 was a satellite in LEO that was launched on Fri, 07 Dec 2018 UTC launched from the Jiuquan Satellite Launch Center, China (JSC). Unknown objects in Earth's orbit typically refer to objects detected orbiting the Earth but have not yet been identified or cataloged. These objects could be anything from previously untracked satellites, spent rocket stages, debris from satellite collisions, or even natural meteoroids temporarily captured by Earth's gravity. This object's orbit decayed before it could be identified.

Not visible in the next 10 days
OBJECT N details
Identifier
43843, 2018-102N
Orbit
Decayed
Last TLE update7 months ago
Origin
Flag of TBDCASC (TBD)
ManufacturerCALT
MissionDecayed spacecraft
Bus & MotorUnknown
Mass1 kg wet, 1 kg dry
Launch date (UTC)
2018-12-07 (6 years ago)
Launch vehicleUnknown
Launch site
Jiuquan Satellite Launch Center, China (JSC)
Object typeUnknown
Shape & HBRCone, 0.2 m
Radar Cross Section0.025 m², Medium (>0.1 m² and < 1m²)

Expand to show TLE details & history

TLE from 7 months ago
0 OBJECT N
1 43843U 18102N   24140.97272243  .06998283  25122-5  16865-2 0  9991
2 43843  97.4385 238.5864 0016795 268.5926  91.3443 16.29064881302051
Epoch: 2024-05-19T23:20Z
Definitive object data (Epoch: 2024-05-19T23:20:43.217Z)
Latitude-0.00011°
Longitude10.28997°
Altitude198.567 km
Speed7.787 km/s
True Right ascension15h 54m 20s
True Declination0° 00' 00"
Sunlit
Object was in full shadow at TLE epoch
Visualization observer readout
Observer readout values are unavailable because the object's trajectory could not be propagated. This is usually caused when the trajectory data is faulty or the object's orbit has decayed.
Visualization observer readout
Observer readout values are unavailable because the object's trajectory could not be propagated. This is usually caused when the trajectory data is faulty or the object's orbit has decayed.
Orbital elements
Apogee altitude202.912 km
Perigee altitude180.843 km
Semi-major axis6,570.015 km
Eccentricity0.0016795
Inclination97.4385°
RAAN238.5864°
Arg. of periapsis268.5926°
True anomaly91.53669°
Mean anomaly91.3443°
Eccentric anomaly91.4405°
Mean motion4.07562 °/min
BSTAR0.0016865
Orbital period88.33 mins
Loading maneuver chart data...
Loading historical data...
Loading historical data...
Loading historical data...
Loading historical data...
Loading historical data...
Loading historical data...
Loading historical data...

OBJECT N Visibility forecast

Observer location: undefined°, undefined

This satellite is decayed
Span
Click to sort rows by Start time (UTC) header in descending order
Start Az.
Max El. time (UTC)
Max El. Az.
Max El.
End time (UTC)
End Az.
|